הכול
K. D. Matanzima Airport (Umtata) UTT מזג אוויר
|
Umtata (UTT / FAUT)
שמים בהירים
רוחות שקטות |
|
13 °C |
UTT Terminal Area Forecast
| Date | Time (SAST) | Flight Rules | Wind Dir. | Speed | Type | Height AGL (ft) | Visibility | Remarks | ||||||
|---|---|---|---|---|---|---|---|---|---|---|---|---|---|---|
Recent UTT METAR history
| Date | Time (SAST) | Flight Rules | Wind Dir. | Speed | Type | Height AGL (ft) | Visibility | Temp (°C) | Temp (°F) | Dew Point (°C) | Dew Point (°F) | Rel. Humid. | Pressure | Density Altitude | Remarks |
|---|---|---|---|---|---|---|---|---|---|---|---|---|---|---|---|
| gap in available data | |||||||||||||||
| 05-ספט | 22:00 | n/a | 190° | 3 kt | Missing | 13° | 55° | 11° | 51° | 88% | 1026 mb | 2,257 ft | |||
| 05-ספט | 21:00 | n/a | 200° | 3 kt | Missing | 13° | 55° | 11° | 51° | 88% | 1026 mb | 2,257 ft | |||
| 05-ספט | 20:00 | n/a | 150° | 4 kt | Missing | 13° | 55° | 11° | 51° | 88% | 1026 mb | 2,257 ft | |||
| 05-ספט | 19:00 | n/a | 160° | 5 kt | Missing | 13° | 55° | 11° | 51° | 88% | 1025 mb | 2,287 ft | |||
| 05-ספט | 18:00 | n/a | 160° | 7 kt | Missing | 14° | 57° | 11° | 51° | 82% | 1025 mb | 2,407 ft | |||
| 05-ספט | 17:00 | n/a | 170° | 6 kt | Missing | 15° | 59° | 11° | 51° | 77% | 1024 mb | 2,556 ft | |||
| 05-ספט | 16:00 | n/a | 150° | 4 kt | Missing | 15° | 59° | 10° | 50° | 72% | 1023 mb | 2,586 ft | |||
| 05-ספט | 15:00 | n/a | 160° | 6 kt | Missing | 16° | 60° | 10° | 50° | 68% | 1023 mb | 2,706 ft | |||
| 05-ספט | 14:00 | n/a | 140° | 5 kt | Missing | 16° | 60° | 10° | 50° | 68% | 1024 mb | 2,676 ft | |||
| 05-ספט | 13:00 | n/a | 30° | 1 kt | Missing | 15° | 59° | 9° | 48° | 67% | 1025 mb | 2,527 ft | |||
| 05-ספט | 12:00 | n/a | 350° | 3 kt | Missing | 15° | 59° | 9° | 48° | 67% | 1025 mb | 2,527 ft | |||
| 05-ספט | 11:00 | n/a | 60° | 6 kt | Missing | 15° | 59° | 10° | 50° | 72% | 1025 mb | 2,527 ft | |||
| 05-ספט | 10:00 | n/a | 70° | 7 kt | Missing | 15° | 59° | 10° | 50° | 72% | 1026 mb | 2,497 ft | |||
| 05-ספט | 09:00 | n/a | 90° | 7 kt | Missing | 13° | 55° | 9° | 48° | 77% | 1027 mb | 2,228 ft | |||
| 05-ספט | 08:00 | MVFR | 80° | 3 kt | Few Broken |
500 1,500 |
10000 meters | 12° | 53° | 9° | 48° | 82% | 1027 mb | 2,108 ft | |
| 05-ספט | 07:00 | n/a | 140° | 6 kt | Missing | 10° | 50° | 9° | 48° | 93% | 1026 mb | 1,897 ft | |||
| 05-ספט | 06:00 | n/a | 140° | 6 kt | Missing | 10° | 50° | 9° | 48° | 93% | 1026 mb | 1,897 ft | |||
| 05-ספט | 05:00 | n/a | 100° | 7 kt | Missing | 10° | 50° | 9° | 48° | 93% | 1026 mb | 1,897 ft | |||
| 05-ספט | 04:00 | n/a | 110° | 6 kt | Missing | 11° | 51° | 9° | 48° | 87% | 1026 mb | 2,017 ft | |||
| 05-ספט | 03:00 | n/a | 100° | 7 kt | Missing | 11° | 51° | 9° | 48° | 87% | 1027 mb | 1,988 ft | |||
| 05-ספט | 02:00 | n/a | 100° | 3 kt | Missing | 11° | 51° | 9° | 48° | 87% | 1028 mb | 1,958 ft | |||
| 05-ספט | 01:00 | n/a | 140° | 3 kt | Missing | 10° | 50° | 10° | 50° | 100% | 1029 mb | 1,809 ft | |||
| 05-ספט | 00:00 | n/a | 120° | 5 kt | Missing | 10° | 50° | 9° | 48° | 93% | 1030 mb | 1,779 ft | |||
| 04-ספט | 23:00 | n/a | 130° | 4 kt | Missing | 10° | 50° | 10° | 50° | 100% | 1030 mb | 1,779 ft | |||
כניסה לאתר
| אין תמיכה בדפדפן שלך. שדרג את הדפדפן שלך |
